| time (UTC) | temp C | wind direction | speed KPH | gust KPH | rain 1hr cm | rain 24hr cm | rain mn cm | humidity % | barometer mb |
| 20260507234551 | 12 | 270 | 0.0 | 1.6 | 0.00 | 0.00 | 0.00 | 85 | 1014.3 |
| 20260507233052 | 12 | 255 | 0.0 | 1.6 | 0.00 | 0.00 | 0.00 | 85 | 1014.3 |
| 20260507231551 | 12 | 270 | 0.0 | 0.0 | 0.00 | 0.00 | 0.00 | 85 | 1014.3 |
| 20260507230106 | 12 | 270 | 0.0 | 1.6 | 0.00 | 0.00 | 0.00 | 85 | 1014.4 |
| 20260507224547 | 12 | 270 | 0.0 | 1.6 | 0.00 | 0.00 | 0.00 | 84 | 1014.4 |
| 20260507223132 | 12 | 270 | 0.0 | 1.6 | 0.00 | 0.00 | 0.00 | 84 | 1014.3 |
| 20260507221545 | 12 | 270 | 0.0 | 0.0 | 0.00 | 0.00 | 0.00 | 84 | 1014.3 |
| 20260507220043 | 12 | 264 | 0.0 | 0.0 | 0.00 | 0.00 | 0.00 | 84 | 1014.2 |
| 20260507214552 | 12 | 281 | 0.0 | 3.2 | 0.00 | 0.00 | 0.00 | 83 | 1014.1 |
| 20260507213045 | 12 | 245 | 0.0 | 1.6 | 0.00 | 0.00 | 0.00 | 82 | 1014.1 |
| 20260507211542 | 12 | 245 | 0.0 | 0.0 | 0.00 | 0.00 | 0.00 | 81 | 1014.1 |
| 20260507210046 | 13 | 245 | 0.0 | 0.0 | 0.00 | 0.00 | 0.00 | 80 | 1014.0 |
| 20260507204543 | 13 | 245 | 0.0 | 1.6 | 0.00 | 0.00 | 0.00 | 79 | 1014.0 |
| 20260507203042 | 13 | 245 | 0.0 | 1.6 | 0.00 | 0.00 | 0.00 | 77 | 1013.7 |
| 20260507201540 | 13 | 252 | 0.0 | 3.2 | 0.00 | 0.00 | 0.00 | 75 | 1013.5 |
| 20260507200050 | 14 | 264 | 0.0 | 1.6 | 0.00 | 0.00 | 0.00 | 72 | 1013.4 |
| 20260507194535 | 14 | 145 | 0.0 | 1.6 | 0.00 | 0.00 | 0.00 | 72 | 1013.2 |
| 20260507193044 | 15 | 145 | 0.0 | 0.0 | 0.00 | 0.00 | 0.00 | 70 | 1012.9 |
| 20260507191533 | 15 | 145 | 0.0 | 1.6 | 0.00 | 0.00 | 0.00 | 69 | 1012.9 |
| 20260507190037 | 16 | 145 | 0.0 | 1.6 | 0.00 | 0.00 | 0.00 | 66 | 1012.6 |
| 20260507184532 | 16 | 134 | 1.6 | 8.0 | 0.00 | 0.00 | 0.00 | 62 | 1012.5 |
| 20260507183038 | 17 | 104 | 1.6 | 9.7 | 0.00 | 0.00 | 0.00 | 61 | 1012.3 |
| 20260507181534 | 17 | 82 | 6.4 | 14.5 | 0.00 | 0.00 | 0.00 | 61 | 1012.0 |
| 20260507180030 | 17 | 99 | 9.7 | 16.1 | 0.00 | 0.00 | 0.00 | 60 | 1011.9 |
| 20260507174529 | 17 | 95 | 11.3 | 17.7 | 0.00 | 0.00 | 0.00 | 60 | 1011.7 |
| 20260507173029 | 17 | 82 | 1.6 | 16.1 | 0.00 | 0.00 | 0.00 | 61 | 1011.4 |
| 20260507171528 | 17 | 76 | 3.2 | 16.1 | 0.00 | 0.00 | 0.00 | 60 | 1011.4 |
| 20260507170028 | 18 | 79 | 6.4 | 17.7 | 0.00 | 0.00 | 0.00 | 58 | 1011.3 |
| 20260507164527 | 18 | 53 | 8.0 | 19.3 | 0.00 | 0.00 | 0.00 | 57 | 1011.2 |
| 20260507163029 | 19 | 113 | 8.0 | 16.1 | 0.00 | 0.00 | 0.00 | 57 | 1011.1 |
| 20260507161530 | 19 | 99 | 11.3 | 19.3 | 0.00 | 0.00 | 0.00 | 56 | 1011.0 |
| 20260507160026 | 19 | 159 | 6.4 | 22.5 | 0.00 | 0.00 | 0.00 | 56 | 1011.0 |
| 20260507154528 | 18 | 55 | 12.9 | 24.1 | 0.00 | 0.00 | 0.00 | 55 | 1010.8 |
| 20260507153025 | 18 | 130 | 8.0 | 24.1 | 0.00 | 0.00 | 0.00 | 56 | 1010.9 |
| 20260507151526 | 19 | 148 | 6.4 | 19.3 | 0.00 | 0.00 | 0.00 | 57 | 1010.9 |
| 20260507150023 | 19 | 91 | 11.3 | 22.5 | 0.00 | 0.00 | 0.00 | 56 | 1011.0 |
| 20260507144528 | 19 | 81 | 9.7 | 24.1 | 0.00 | 0.00 | 0.00 | 56 | 1011.2 |
| 20260507143023 | 19 | 99 | 11.3 | 22.5 | 0.00 | 0.00 | 0.00 | 56 | 1011.1 |
| 20260507140018 | 19 | 80 | 9.7 | 19.3 | 0.00 | 0.00 | 0.00 | 56 | 1011.2 |
| 20260507134517 | 19 | 148 | 9.7 | 20.9 | 0.00 | 0.00 | 0.00 | 56 | 1011.2 |
| 20260507133017 | 19 | 124 | 8.0 | 24.1 | 0.00 | 0.00 | 0.00 | 57 | 1011.2 |
| 20260507131523 | 19 | 115 | 8.0 | 24.1 | 0.00 | 0.00 | 0.00 | 56 | 1011.5 |
| 20260507130015 | 19 | 100 | 8.0 | 20.9 | 0.00 | 0.00 | 0.00 | 57 | 1011.7 |
| 20260507124513 | 18 | 120 | 9.7 | 22.5 | 0.00 | 0.00 | 0.00 | 57 | 1011.6 |
| 20260507123013 | 18 | 76 | 6.4 | 20.9 | 0.00 | 0.00 | 0.00 | 61 | 1011.7 |
| 20260507121510 | 18 | 128 | 8.0 | 20.9 | 0.00 | 0.00 | 0.00 | 59 | 1011.8 |
| 20260507120009 | 18 | 55 | 11.3 | 22.5 | 0.00 | 0.00 | 0.00 | 60 | 1011.9 |
| 20260507114508 | 18 | 104 | 6.4 | 25.7 | 0.00 | 0.00 | 0.00 | 60 | 1012.0 |
| 20260507113007 | 18 | 97 | 11.3 | 24.1 | 0.00 | 0.00 | 0.00 | 58 | 1012.1 |
| 20260507111507 | 18 | 78 | 11.3 | 22.5 | 0.00 | 0.00 | 0.00 | 58 | 1012.3 |
| 20260507110005 | 17 | 134 | 8.0 | 22.5 | 0.00 | 0.00 | 0.00 | 57 | 1012.4 |
| 20260507104504 | 17 | 130 | 9.7 | 25.7 | 0.00 | 0.00 | 0.00 | 58 | 1012.4 |
| 20260507103003 | 17 | 134 | 8.0 | 19.3 | 0.00 | 0.00 | 0.00 | 56 | 1012.5 |
| 20260507101603 | 17 | 115 | 9.7 | 19.3 | 0.00 | 0.00 | 0.00 | 59 | 1012.5 |
| 20260507100113 | 17 | 84 | 6.4 | 17.7 | 0.00 | 0.00 | 0.00 | 57 | 1012.6 |
| 20260507094557 | 16 | 103 | 3.2 | 11.3 | 0.00 | 0.00 | 0.00 | 61 | 1012.6 |
| 20260507093100 | 16 | 108 | 3.2 | 12.9 | 0.00 | 0.00 | 0.00 | 59 | 1012.7 |
| 20260507091556 | 16 | 175 | 3.2 | 9.7 | 0.00 | 0.00 | 0.00 | 59 | 1012.8 |
| 20260507090051 | 15 | 87 | 1.6 | 11.3 | 0.00 | 0.00 | 0.00 | 63 | 1012.9 |
| 20260507084551 | 15 | 93 | 4.8 | 11.3 | 0.00 | 0.00 | 0.00 | 67 | 1012.9 |
| 20260507083105 | 15 | 135 | 0.0 | 9.7 | 0.00 | 0.00 | 0.00 | 67 | 1013.0 |
| 20260507081556 | 15 | 253 | 1.6 | 8.0 | 0.00 | 0.00 | 0.00 | 65 | 1013.1 |
| 20260507080044 | 15 | 268 | 0.0 | 4.8 | 0.00 | 0.00 | 0.00 | 57 | 1013.2 |
| 20260507074541 | 14 | 202 | 0.0 | 4.8 | 0.00 | 0.05 | 0.00 | 58 | 1013.1 |
| 20260507073050 | 13 | 150 | 1.6 | 4.8 | 0.00 | 0.05 | 0.00 | 61 | 1013.2 |
| 20260507071537 | 13 | 139 | 1.6 | 4.8 | 0.00 | 0.05 | 0.00 | 60 | 1013.0 |
| 20260507070039 | 12 | 214 | 0.0 | 1.6 | 0.00 | 0.05 | 0.00 | 67 | 1013.0 |
| 20260507064536 | 10 | 359 | 0.0 | 4.8 | 0.00 | 0.05 | 0.00 | 73 | 1013.0 |
| 20260507063031 | 8 | 269 | 0.0 | 6.4 | 0.00 | 0.05 | 0.00 | 78 | 1012.9 |
| 20260507061527 | 7 | 277 | 0.0 | 4.8 | 0.00 | 0.05 | 0.00 | 87 | 1012.8 |
| 20260507060030 | 5 | 335 | 0.0 | 4.8 | 0.00 | 0.05 | 0.00 | 87 | 1012.9 |
| 20260507054526 | 5 | 269 | 0.0 | 4.8 | 0.00 | 0.20 | 0.00 | 87 | 1012.8 |
| 20260507053022 | 5 | 337 | 0.0 | 4.8 | 0.00 | 0.20 | 0.00 | 87 | 1012.7 |
| 20260507051520 | 5 | 276 | 0.0 | 0.0 | 0.00 | 0.20 | 0.00 | 87 | 1012.6 |
| 20260507050028 | 5 | 260 | 0.0 | 4.8 | 0.00 | 0.20 | 0.00 | 86 | 1012.2 |
| 20260507044516 | 5 | 8 | 0.0 | 3.2 | 0.00 | 0.48 | 0.00 | 86 | 1012.0 |
| 20260507043015 | 5 | 233 | 0.0 | 4.8 | 0.00 | 0.48 | 0.00 | 86 | 1011.7 |
| 20260507041527 | 5 | 338 | 0.0 | 4.8 | 0.00 | 0.48 | 0.00 | 86 | 1011.5 |
| 20260507040013 | 5 | 5 | 0.0 | 0.0 | 0.00 | 0.48 | 0.00 | 84 | 1011.6 |
| 20260507034516 | 6 | 243 | 0.0 | 3.2 | 0.00 | 0.51 | 0.00 | 84 | 1011.6 |
| 20260507033010 | 6 | 314 | 0.0 | 6.4 | 0.00 | 0.51 | 0.00 | 84 | 1011.7 |
| 20260507031509 | 6 | 251 | 0.0 | 3.2 | 0.00 | 0.51 | 0.00 | 85 | 1011.8 |
| 20260507030006 | 6 | 284 | 1.6 | 4.8 | 0.00 | 0.51 | 0.00 | 85 | 1011.9 |
| 20260507024506 | 6 | 277 | 0.0 | 3.2 | 0.00 | 0.51 | 0.00 | 85 | 1011.9 |
| 20260507023005 | 6 | 262 | 0.0 | 6.4 | 0.00 | 0.51 | 0.00 | 85 | 1011.9 |
| 20260507021504 | 6 | 256 | 0.0 | 9.7 | 0.00 | 0.51 | 0.00 | 86 | 1011.8 |
| 20260507020002 | 6 | 259 | 1.6 | 3.2 | 0.00 | 0.53 | 0.00 | 86 | 1011.6 |
| 20260507014608 | 6 | 5 | 0.0 | 0.0 | 0.00 | 0.53 | 0.00 | 84 | 1011.6 |
| 20260507013057 | 6 | 5 | 0.0 | 0.0 | 0.00 | 0.53 | 0.00 | 83 | 1011.4 |
| 20260507011554 | 6 | 5 | 0.0 | 3.2 | 0.00 | 0.53 | 0.00 | 81 | 1011.0 |
| 20260507010051 | 7 | 91 | 0.0 | 3.2 | 0.00 | 0.53 | 0.00 | 79 | 1010.9 |
| 20260507004547 | 8 | 281 | 0.0 | 3.2 | 0.00 | 0.56 | 0.00 | 77 | 1010.7 |
| 20260507003046 | 8 | 290 | 1.6 | 6.4 | 0.00 | 0.56 | 0.00 | 75 | 1010.7 |
| 20260507001547 | 9 | 243 | 0.0 | 4.8 | 0.00 | 0.56 | 0.00 | 73 | 1010.6 |
| 20260507000044 | 8 | 220 | 0.0 | 4.8 | 0.00 | 0.56 | 0.00 | 76 | 1010.7 |